| time (UTC) | temp C | wind direction | speed KPH | gust KPH | rain 1hr cm | rain 24hr cm | rain mn cm | humidity % | barometer mb |
| 20260506190044 | 33 | 320 | 3.2 | 14.5 | 0.00 | 0.00 | 0.00 | 63 | 1006.5 |
| 20260506184539 | 33 | 323 | 1.6 | 9.7 | 0.00 | 0.00 | 0.00 | 65 | 1006.6 |
| 20260506183038 | 32 | 327 | 3.2 | 9.7 | 0.00 | 0.00 | 0.00 | 67 | 1006.8 |
| 20260506181545 | 32 | 170 | 1.6 | 12.9 | 0.00 | 0.00 | 0.00 | 67 | 1007.0 |
| 20260506180048 | 32 | 171 | 8.0 | 17.7 | 0.00 | 0.00 | 0.00 | 67 | 1006.9 |
| 20260506174540 | 32 | 98 | 6.4 | 16.1 | 0.00 | 0.00 | 0.00 | 70 | 1007.1 |
| 20260506173045 | 31 | 136 | 8.0 | 19.3 | 0.00 | 0.00 | 0.00 | 70 | 1007.3 |
| 20260506171551 | 31 | 110 | 12.9 | 19.3 | 0.00 | 0.00 | 0.00 | 71 | 1007.3 |
| 20260506170040 | 30 | 132 | 14.5 | 22.5 | 0.00 | 0.00 | 0.00 | 72 | 1007.4 |
| 20260506164541 | 30 | 130 | 9.7 | 22.5 | 0.00 | 0.00 | 0.00 | 73 | 1007.4 |
| 20260506163043 | 30 | 145 | 11.3 | 22.5 | 0.00 | 0.00 | 0.00 | 73 | 1007.4 |
| 20260506161540 | 30 | 132 | 11.3 | 19.3 | 0.00 | 0.00 | 0.00 | 74 | 1007.1 |
| 20260506160041 | 29 | 153 | 12.9 | 22.5 | 0.00 | 0.00 | 0.00 | 75 | 1007.2 |
| 20260506154608 | 28 | 130 | 8.0 | 19.3 | 0.00 | 0.00 | 0.00 | 77 | 1007.3 |
| 20260506153043 | 28 | 134 | 11.3 | 19.3 | 0.00 | 0.00 | 0.00 | 78 | 1007.3 |
| 20260506151541 | 27 | 163 | 8.0 | 20.9 | 0.00 | 0.00 | 0.00 | 80 | 1007.4 |
| 20260506150042 | 27 | 136 | 9.7 | 17.7 | 0.00 | 0.00 | 0.00 | 81 | 1007.4 |
| 20260506144547 | 27 | 146 | 8.0 | 22.5 | 0.00 | 0.00 | 0.00 | 83 | 1007.6 |
| 20260506143034 | 26 | 153 | 11.3 | 22.5 | 0.00 | 0.00 | 0.00 | 83 | 1007.8 |
| 20260506141541 | 26 | 132 | 12.9 | 17.7 | 0.00 | 0.00 | 0.00 | 83 | 1007.9 |
| 20260506140055 | 26 | 132 | 8.0 | 16.1 | 0.00 | 0.00 | 0.00 | 84 | 1007.6 |
| 20260506134542 | 26 | 137 | 4.8 | 14.5 | 0.00 | 0.00 | 0.00 | 85 | 1007.7 |
| 20260506133045 | 26 | 134 | 4.8 | 11.3 | 0.00 | 0.00 | 0.00 | 86 | 1007.7 |
| 20260506131543 | 26 | 142 | 4.8 | 14.5 | 0.00 | 0.00 | 0.00 | 86 | 1007.8 |
| 20260506130045 | 26 | 135 | 1.6 | 6.4 | 0.00 | 0.00 | 0.00 | 86 | 1007.7 |
| 20260506124541 | 26 | 135 | 3.2 | 6.4 | 0.00 | 0.00 | 0.00 | 85 | 1007.4 |
| 20260506123040 | 26 | 0 | 1.6 | 8.0 | 0.00 | 0.00 | 0.00 | 85 | 1007.2 |
| 20260506121537 | 26 | 150 | 1.6 | 11.3 | 0.00 | 0.00 | 0.00 | 85 | 1006.9 |
| 20260506120040 | 26 | 143 | 6.4 | 12.9 | 0.00 | 0.00 | 0.00 | 85 | 1006.5 |
| 20260506114542 | 26 | 160 | 4.8 | 12.9 | 0.00 | 0.00 | 0.00 | 85 | 1006.0 |
| 20260506113047 | 26 | 146 | 6.4 | 16.1 | 0.00 | 0.00 | 0.00 | 85 | 1006.1 |
| 20260506111537 | 26 | 154 | 9.7 | 17.7 | 0.00 | 0.00 | 0.00 | 84 | 1005.9 |
| 20260506110038 | 26 | 112 | 6.4 | 14.5 | 0.00 | 0.00 | 0.00 | 84 | 1005.7 |
| 20260506104549 | 26 | 136 | 6.4 | 14.5 | 0.00 | 0.00 | 0.00 | 84 | 1005.5 |
| 20260506103042 | 26 | 129 | 8.0 | 17.7 | 0.00 | 0.00 | 0.00 | 84 | 1005.2 |
| 20260506101547 | 26 | 144 | 8.0 | 14.5 | 0.00 | 0.00 | 0.00 | 84 | 1005.1 |
| 20260506100040 | 26 | 129 | 8.0 | 17.7 | 0.00 | 0.00 | 0.00 | 84 | 1005.0 |
| 20260506094536 | 26 | 147 | 6.4 | 19.3 | 0.00 | 0.00 | 0.00 | 84 | 1004.9 |
| 20260506093042 | 26 | 104 | 11.3 | 22.5 | 0.00 | 0.00 | 0.00 | 84 | 1005.0 |
| 20260506091541 | 26 | 146 | 14.5 | 22.5 | 0.00 | 0.00 | 0.00 | 84 | 1004.9 |
| 20260506090040 | 26 | 159 | 16.1 | 25.7 | 0.00 | 0.00 | 0.00 | 83 | 1005.2 |
| 20260506084546 | 26 | 125 | 14.5 | 24.1 | 0.00 | 0.00 | 0.00 | 83 | 1005.2 |
| 20260506083037 | 26 | 146 | 12.9 | 24.1 | 0.00 | 0.00 | 0.00 | 83 | 1005.2 |
| 20260506081542 | 26 | 142 | 16.1 | 30.6 | 0.00 | 0.00 | 0.00 | 83 | 1005.4 |
| 20260506073039 | 26 | 142 | 14.5 | 29.0 | 0.00 | 0.00 | 0.00 | 84 | 1005.7 |
| 20260506071545 | 26 | 126 | 14.5 | 32.2 | 0.00 | 0.00 | 0.00 | 84 | 1005.7 |
| 20260506061554 | 26 | 130 | 17.7 | 27.4 | 0.00 | 0.00 | 0.00 | 85 | 1006.1 |
| 20260506044537 | 26 | 130 | 14.5 | 33.8 | 0.00 | 0.00 | 0.00 | 83 | 1006.8 |
| 20260506043040 | 27 | 134 | 19.3 | 32.2 | 0.00 | 0.00 | 0.00 | 83 | 1006.7 |
| 20260506041540 | 27 | 119 | 14.5 | 32.2 | 0.00 | 0.00 | 0.00 | 82 | 1006.8 |
| 20260506040041 | 27 | 124 | 16.1 | 30.6 | 0.00 | 0.00 | 0.00 | 82 | 1006.8 |
| 20260506034539 | 27 | 115 | 14.5 | 33.8 | 0.00 | 0.00 | 0.00 | 82 | 1006.6 |
| 20260506033047 | 27 | 109 | 16.1 | 37.0 | 0.00 | 0.00 | 0.00 | 81 | 1006.3 |
| 20260506031542 | 27 | 148 | 19.3 | 33.8 | 0.00 | 0.00 | 0.00 | 81 | 1006.0 |
| 20260506030042 | 27 | 137 | 19.3 | 38.6 | 0.00 | 0.00 | 0.00 | 81 | 1005.9 |
| 20260506024544 | 27 | 123 | 17.7 | 38.6 | 0.00 | 0.00 | 0.00 | 81 | 1005.5 |
| 20260506023049 | 27 | 123 | 16.1 | 29.0 | 0.00 | 0.00 | 0.00 | 80 | 1005.4 |
| 20260506021537 | 27 | 116 | 19.3 | 35.4 | 0.00 | 0.00 | 0.00 | 80 | 1005.3 |
| 20260506020042 | 27 | 128 | 14.5 | 35.4 | 0.00 | 0.00 | 0.00 | 79 | 1005.1 |
| 20260506014543 | 27 | 148 | 20.9 | 38.6 | 0.00 | 0.00 | 0.00 | 78 | 1004.8 |
| 20260506013040 | 27 | 130 | 20.9 | 33.8 | 0.00 | 0.00 | 0.00 | 78 | 1004.6 |
| 20260506011535 | 28 | 131 | 12.9 | 30.6 | 0.00 | 0.00 | 0.00 | 77 | 1004.4 |
| 20260506010054 | 28 | 115 | 20.9 | 33.8 | 0.00 | 0.00 | 0.00 | 76 | 1004.2 |
| 20260506004547 | 28 | 107 | 19.3 | 37.0 | 0.00 | 0.00 | 0.00 | 75 | 1004.1 |
| 20260506003042 | 29 | 145 | 20.9 | 35.4 | 0.00 | 0.00 | 0.00 | 73 | 1003.9 |
| 20260506001544 | 30 | 125 | 19.3 | 32.2 | 0.00 | 0.00 | 0.00 | 71 | 1003.7 |
| 20260506000038 | 30 | 115 | 19.3 | 30.6 | 0.00 | 0.00 | 0.00 | 71 | 1003.5 |
| 20260505234559 | 31 | 140 | 19.3 | 32.2 | 0.00 | 0.00 | 0.00 | 69 | 1003.5 |
| 20260505233043 | 31 | 111 | 16.1 | 35.4 | 0.00 | 0.00 | 0.00 | 69 | 1003.4 |
| 20260505231541 | 31 | 101 | 17.7 | 40.2 | 0.00 | 0.00 | 0.00 | 68 | 1003.4 |
| 20260505230039 | 32 | 134 | 19.3 | 33.8 | 0.00 | 0.00 | 0.00 | 66 | 1003.4 |
| 20260505224539 | 32 | 169 | 17.7 | 32.2 | 0.00 | 0.00 | 0.00 | 66 | 1003.5 |
| 20260505223045 | 32 | 126 | 24.1 | 35.4 | 0.00 | 0.00 | 0.00 | 65 | 1003.4 |
| 20260505221542 | 32 | 140 | 19.3 | 33.8 | 0.00 | 0.00 | 0.00 | 64 | 1003.5 |
| 20260505220042 | 32 | 121 | 17.7 | 33.8 | 0.00 | 0.00 | 0.00 | 65 | 1003.6 |
| 20260505214559 | 33 | 119 | 17.7 | 35.4 | 0.00 | 0.00 | 0.00 | 64 | 1003.7 |
| 20260505213056 | 33 | 135 | 14.5 | 27.4 | 0.00 | 0.00 | 0.00 | 63 | 1003.9 |
| 20260505211542 | 33 | 111 | 12.9 | 30.6 | 0.00 | 0.00 | 0.00 | 63 | 1003.9 |
| 20260505210041 | 33 | 140 | 19.3 | 30.6 | 0.00 | 0.00 | 0.00 | 62 | 1004.2 |
| 20260505204548 | 33 | 119 | 19.3 | 32.2 | 0.00 | 0.00 | 0.00 | 61 | 1004.3 |
| 20260505203046 | 34 | 114 | 12.9 | 30.6 | 0.00 | 0.00 | 0.00 | 61 | 1004.4 |
| 20260505201545 | 33 | 159 | 14.5 | 33.8 | 0.00 | 0.00 | 0.00 | 61 | 1004.5 |
| 20260505200052 | 33 | 101 | 14.5 | 32.2 | 0.00 | 0.00 | 0.00 | 61 | 1004.7 |
| 20260505194545 | 33 | 117 | 16.1 | 30.6 | 0.00 | 0.00 | 0.00 | 60 | 1004.8 |
| 20260505193040 | 33 | 107 | 14.5 | 25.7 | 0.00 | 0.00 | 0.00 | 60 | 1005.0 |
| 20260505191537 | 33 | 140 | 17.7 | 30.6 | 0.00 | 0.00 | 0.00 | 60 | 1005.3 |